| time (UTC) | temp F | wind direction | speed MPH | gust MPH | rain 1hr in | rain 24hr in | rain mn in | humidity % | barometer mb |
| 20260904215603 | 53 | 238 | 2.0 | 8.0 | 0.00 | 0.00 | 0.00 | 64 | 1018.0 |
| 20260904215503 | 52 | 237 | 1.0 | 8.0 | 0.00 | 0.00 | 0.00 | 63 | 1016.5 |
| 20260904215103 | 53 | 246 | 2.0 | 9.0 | 0.00 | 0.00 | 0.00 | 64 | 1017.9 |
| 20260904215003 | 52 | 254 | 3.0 | 9.0 | 0.00 | 0.00 | 0.00 | 63 | 1016.5 |
| 20260904214603 | 52 | 230 | 3.0 | 9.0 | 0.00 | 0.00 | 0.00 | 66 | 1017.9 |
| 20260904214504 | 52 | 102 | 4.0 | 9.0 | 0.00 | 0.00 | 0.00 | 67 | 1016.5 |
| 20260904214102 | 52 | 113 | 2.0 | 7.0 | 0.00 | 0.00 | 0.00 | 69 | 1017.9 |
| 20260904214008 | 51 | 113 | 3.0 | 7.0 | 0.00 | 0.00 | 0.00 | 69 | 1016.5 |
| 20260904213820 | 52 | 106 | 3.0 | 9.0 | 0.00 | 0.00 | 0.00 | 69 | 1017.9 |
| 20260904213502 | 51 | 83 | 1.0 | 9.0 | 0.00 | 0.00 | 0.00 | 69 | 1016.5 |
| 20260904213101 | 51 | 121 | 4.0 | 9.0 | 0.00 | 0.00 | 0.00 | 68 | 1017.9 |
| 20260904213005 | 51 | 121 | 2.0 | 11.0 | 0.00 | 0.00 | 0.00 | 67 | 1016.5 |
| 20260904212602 | 51 | 113 | 3.0 | 11.0 | 0.00 | 0.00 | 0.00 | 70 | 1017.9 |
| 20260904212504 | 51 | 102 | 3.0 | 11.0 | 0.00 | 0.00 | 0.00 | 69 | 1016.5 |
| 20260904212101 | 51 | 118 | 2.0 | 11.0 | 0.00 | 0.00 | 0.00 | 72 | 1017.7 |
| 20260904212002 | 50 | 94 | 2.0 | 7.0 | 0.00 | 0.00 | 0.00 | 71 | 1016.5 |
| 20260904211601 | 51 | 90 | 1.0 | 7.0 | 0.00 | 0.00 | 0.00 | 75 | 1017.7 |
| 20260904211504 | 50 | 279 | 0.0 | 7.0 | 0.00 | 0.00 | 0.00 | 74 | 1016.4 |
| 20260904211057 | 50 | 77 | 0.0 | 6.0 | 0.00 | 0.00 | 0.00 | 76 | 1017.7 |
| 20260904211003 | 50 | 76 | 0.0 | 6.0 | 0.00 | 0.00 | 0.00 | 75 | 1016.4 |
| 20260904210557 | 50 | 115 | 0.0 | 0.0 | 0.00 | 0.00 | 0.00 | 77 | 1017.7 |
| 20260904210504 | 49 | 115 | 0.0 | 0.0 | 0.00 | 0.00 | 0.00 | 77 | 1016.4 |
| 20260904210324 | 50 | 115 | 0.0 | 0.0 | 0.00 | 0.00 | 0.00 | 78 | 1017.7 |
| 20260904210008 | 49 | 115 | 0.0 | 0.0 | 0.00 | 0.00 | 0.00 | 78 | 1016.3 |
| 20260904205556 | 49 | 114 | 0.0 | 0.0 | 0.00 | 0.00 | 0.00 | 79 | 1017.7 |
| 20260904205503 | 49 | 114 | 0.0 | 0.0 | 0.00 | 0.00 | 0.00 | 78 | 1016.3 |
| 20260904205057 | 49 | 114 | 0.0 | 0.0 | 0.00 | 0.00 | 0.00 | 81 | 1017.6 |
| 20260904205003 | 48 | 114 | 0.0 | 0.0 | 0.00 | 0.00 | 0.00 | 80 | 1016.2 |
| 20260904204818 | 48 | 114 | 0.0 | 1.0 | 0.00 | 0.00 | 0.00 | 80 | 1017.6 |
| 20260904204512 | 48 | 114 | 0.0 | 2.0 | 0.00 | 0.00 | 0.00 | 80 | 1016.2 |
| 20260904204057 | 48 | 114 | 0.0 | 2.0 | 0.00 | 0.00 | 0.00 | 82 | 1017.6 |
| 20260904204009 | 47 | 114 | 0.0 | 2.0 | 0.00 | 0.00 | 0.00 | 82 | 1016.2 |
| 20260904203557 | 47 | 115 | 0.0 | 2.0 | 0.00 | 0.00 | 0.00 | 82 | 1017.6 |
| 20260904203504 | 47 | 148 | 0.0 | 0.0 | 0.00 | 0.00 | 0.00 | 81 | 1016.2 |
| 20260904203056 | 47 | 218 | 0.0 | 0.0 | 0.00 | 0.00 | 0.00 | 84 | 1017.6 |
| 20260904203010 | 47 | 218 | 0.0 | 0.0 | 0.00 | 0.00 | 0.00 | 83 | 1016.3 |
| 20260904202553 | 47 | 218 | 0.0 | 0.0 | 0.00 | 0.00 | 0.00 | 83 | 1017.5 |
| 20260904202510 | 46 | 218 | 0.0 | 0.0 | 0.00 | 0.00 | 0.00 | 83 | 1016.3 |
| 20260904202053 | 47 | 218 | 0.0 | 0.0 | 0.00 | 0.00 | 0.00 | 83 | 1017.5 |
| 20260904202005 | 46 | 218 | 0.0 | 0.0 | 0.00 | 0.00 | 0.00 | 83 | 1016.2 |
| 20260904201552 | 47 | 218 | 0.0 | 0.0 | 0.00 | 0.00 | 0.00 | 83 | 1017.5 |
| 20260904201503 | 46 | 218 | 0.0 | 0.0 | 0.00 | 0.00 | 0.00 | 82 | 1016.2 |
| 20260904201313 | 47 | 218 | 0.0 | 0.0 | 0.00 | 0.00 | 0.00 | 83 | 1017.4 |
| 20260904201003 | 46 | 218 | 0.0 | 0.0 | 0.00 | 0.00 | 0.00 | 82 | 1016.2 |
| 20260904200814 | 47 | 218 | 0.0 | 0.0 | 0.00 | 0.00 | 0.00 | 82 | 1017.5 |
| 20260904200503 | 46 | 218 | 0.0 | 0.0 | 0.00 | 0.00 | 0.00 | 82 | 1016.2 |
| 20260904200053 | 47 | 218 | 0.0 | 0.0 | 0.00 | 0.00 | 0.00 | 82 | 1017.5 |
| 20260904200004 | 46 | 218 | 0.0 | 0.0 | 0.00 | 0.00 | 0.00 | 82 | 1016.2 |
| 20260904195553 | 47 | 218 | 0.0 | 0.0 | 0.00 | 0.00 | 0.00 | 82 | 1017.5 |
| 20260904195506 | 46 | 218 | 0.0 | 0.0 | 0.00 | 0.00 | 0.00 | 81 | 1016.1 |
| 20260904195053 | 47 | 218 | 0.0 | 0.0 | 0.00 | 0.00 | 0.00 | 83 | 1017.5 |
| 20260904195003 | 46 | 218 | 0.0 | 0.0 | 0.00 | 0.00 | 0.00 | 82 | 1016.1 |
| 20260904194553 | 47 | 218 | 0.0 | 0.0 | 0.00 | 0.00 | 0.00 | 83 | 1017.5 |
| 20260904194506 | 46 | 218 | 0.0 | 0.0 | 0.00 | 0.00 | 0.00 | 82 | 1016.1 |
| 20260904194046 | 47 | 218 | 0.0 | 0.0 | 0.00 | 0.00 | 0.00 | 83 | 1017.6 |
| 20260904194004 | 46 | 218 | 0.0 | 0.0 | 0.00 | 0.00 | 0.00 | 82 | 1016.1 |
| 20260904193539 | 47 | 218 | 0.0 | 0.0 | 0.00 | 0.00 | 0.00 | 82 | 1017.7 |
| 20260904193504 | 46 | 218 | 0.0 | 0.0 | 0.00 | 0.00 | 0.00 | 81 | 1016.1 |
| 20260904193034 | 47 | 218 | 0.0 | 0.0 | 0.00 | 0.00 | 0.00 | 82 | 1017.6 |
| 20260904193012 | 46 | 218 | 0.0 | 0.0 | 0.00 | 0.00 | 0.00 | 81 | 1016.1 |
| 20260904192528 | 47 | 217 | 0.0 | 0.0 | 0.00 | 0.00 | 0.00 | 83 | 1017.6 |
| 20260904192503 | 46 | 217 | 0.0 | 0.0 | 0.00 | 0.00 | 0.00 | 83 | 1016.1 |
| 20260904192023 | 47 | 217 | 0.0 | 0.0 | 0.00 | 0.00 | 0.00 | 83 | 1017.6 |
| 20260904192003 | 46 | 217 | 0.0 | 0.0 | 0.00 | 0.00 | 0.00 | 83 | 1016.0 |
| 20260904191525 | 47 | 217 | 0.0 | 0.0 | 0.00 | 0.00 | 0.00 | 85 | 1017.6 |
| 20260904191515 | 46 | 217 | 0.0 | 0.0 | 0.00 | 0.00 | 0.00 | 84 | 1016.0 |
| 20260904191021 | 47 | 211 | 0.0 | 0.0 | 0.00 | 0.00 | 0.00 | 85 | 1017.6 |
| 20260904191010 | 46 | 211 | 0.0 | 0.0 | 0.00 | 0.00 | 0.00 | 84 | 1016.0 |
| 20260904190519 | 46 | 251 | 0.0 | 0.0 | 0.00 | 0.00 | 0.00 | 83 | 1017.5 |
| 20260904190504 | 46 | 251 | 0.0 | 0.0 | 0.00 | 0.00 | 0.00 | 83 | 1016.0 |
| 20260904190016 | 46 | 251 | 0.0 | 0.0 | 0.00 | 0.00 | 0.00 | 84 | 1017.5 |
| 20260904190009 | 46 | 251 | 0.0 | 0.0 | 0.00 | 0.00 | 0.00 | 83 | 1016.0 |
| 20260904185514 | 46 | 251 | 0.0 | 0.0 | 0.00 | 0.00 | 0.00 | 84 | 1017.5 |
| 20260904185503 | 46 | 251 | 0.0 | 0.0 | 0.00 | 0.00 | 0.00 | 83 | 1016.0 |
| 20260904185237 | 46 | 251 | 0.0 | 0.0 | 0.00 | 0.00 | 0.00 | 83 | 1017.5 |
| 20260904185003 | 46 | 251 | 0.0 | 0.0 | 0.00 | 0.00 | 0.00 | 83 | 1015.9 |
| 20260904184512 | 46 | 251 | 0.0 | 0.0 | 0.00 | 0.00 | 0.00 | 83 | 1015.9 |
| 20260904184011 | 47 | 251 | 0.0 | 0.0 | 0.00 | 0.00 | 0.00 | 84 | 1017.3 |
| 20260904184005 | 46 | 251 | 0.0 | 0.0 | 0.00 | 0.00 | 0.00 | 83 | 1015.8 |
| 20260904183508 | 47 | 238 | 0.0 | 0.0 | 0.00 | 0.00 | 0.00 | 84 | 1017.1 |
| 20260904183505 | 46 | 238 | 0.0 | 0.0 | 0.00 | 0.00 | 0.00 | 84 | 1015.9 |
| 20260904183009 | 47 | 238 | 0.0 | 0.0 | 0.00 | 0.00 | 0.00 | 85 | 1017.1 |
| 20260904183003 | 46 | 238 | 0.0 | 0.0 | 0.00 | 0.00 | 0.00 | 84 | 1015.8 |
| 20260904182507 | 46 | 261 | 0.0 | 0.0 | 0.00 | 0.00 | 0.00 | 84 | 1015.8 |
| 20260904182011 | 46 | 261 | 0.0 | 0.0 | 0.00 | 0.00 | 0.00 | 84 | 1015.8 |
| 20260904182008 | 46 | 261 | 0.0 | 0.0 | 0.00 | 0.00 | 0.00 | 85 | 1016.9 |
| 20260904181514 | 45 | 260 | 0.0 | 0.0 | 0.00 | 0.00 | 0.00 | 84 | 1015.7 |
| 20260904181509 | 46 | 260 | 0.0 | 0.0 | 0.00 | 0.00 | 0.00 | 84 | 1016.9 |
| 20260904181009 | 46 | 288 | 0.0 | 0.0 | 0.00 | 0.00 | 0.00 | 84 | 1016.8 |
| 20260904180511 | 46 | 282 | 0.0 | 0.0 | 0.00 | 0.00 | 0.00 | 84 | 1015.7 |
| 20260904180508 | 46 | 282 | 0.0 | 0.0 | 0.00 | 0.00 | 0.00 | 85 | 1016.8 |
| 20260904180040 | 46 | 282 | 0.0 | 6.0 | 0.00 | 0.00 | 0.00 | 84 | 1015.6 |
| 20260904180008 | 46 | 282 | 1.0 | 6.0 | 0.00 | 0.00 | 0.00 | 85 | 1016.7 |
| 20260904175509 | 46 | 281 | 1.0 | 6.0 | 0.00 | 0.00 | 0.00 | 85 | 1016.8 |
| 20260904175504 | 46 | 281 | 0.0 | 6.0 | 0.00 | 0.00 | 0.00 | 84 | 1015.5 |
| 20260904175225 | 46 | 342 | 0.0 | 3.0 | 0.00 | 0.00 | 0.00 | 86 | 1016.7 |
| 20260904175004 | 46 | 342 | 0.0 | 3.0 | 0.00 | 0.00 | 0.00 | 85 | 1015.5 |
| 20260904174521 | 46 | 110 | 0.0 | 3.0 | 0.00 | 0.00 | 0.00 | 84 | 1015.5 |
| 20260904174502 | 46 | 110 | 0.0 | 3.0 | 0.00 | 0.00 | 0.00 | 85 | 1016.7 |
| 20260904174013 | 46 | 110 | 0.0 | 4.0 | 0.00 | 0.00 | 0.00 | 84 | 1015.4 |
| 20260904173956 | 46 | 110 | 1.0 | 4.0 | 0.00 | 0.00 | 0.00 | 84 | 1016.7 |
| 20260904173505 | 46 | 108 | 0.0 | 4.0 | 0.00 | 0.00 | 0.00 | 85 | 1015.3 |
| 20260904173450 | 46 | 108 | 2.0 | 4.0 | 0.00 | 0.00 | 0.00 | 85 | 1016.7 |
| 20260904173007 | 46 | 105 | 1.0 | 7.0 | 0.00 | 0.00 | 0.00 | 85 | 1015.3 |
| 20260904172944 | 46 | 109 | 2.0 | 7.0 | 0.00 | 0.00 | 0.00 | 85 | 1016.7 |
| 20260904172658 | 46 | 116 | 3.0 | 7.0 | 0.00 | 0.00 | 0.00 | 86 | 1016.5 |
| 20260904172503 | 46 | 116 | 2.0 | 7.0 | 0.00 | 0.00 | 0.00 | 85 | 1015.3 |
| 20260904172004 | 46 | 112 | 3.0 | 8.0 | 0.00 | 0.00 | 0.00 | 85 | 1015.3 |
| 20260904171932 | 46 | 111 | 3.0 | 8.0 | 0.00 | 0.00 | 0.00 | 86 | 1016.4 |
| 20260904171516 | 45 | 99 | 1.0 | 8.0 | 0.00 | 0.00 | 0.00 | 85 | 1015.2 |
| 20260904171426 | 46 | 113 | 2.0 | 8.0 | 0.00 | 0.00 | 0.00 | 86 | 1016.4 |
| 20260904171142 | 46 | 128 | 1.0 | 3.0 | 0.00 | 0.00 | 0.00 | 86 | 1016.4 |
| 20260904171006 | 45 | 106 | 2.0 | 8.0 | 0.00 | 0.00 | 0.00 | 85 | 1015.2 |
| 20260904170509 | 45 | 148 | 0.0 | 7.0 | 0.00 | 0.00 | 0.00 | 85 | 1015.1 |
| 20260904170415 | 46 | 148 | 2.0 | 7.0 | 0.00 | 0.00 | 0.00 | 86 | 1016.3 |
| 20260904170008 | 45 | 146 | 1.0 | 8.0 | 0.00 | 0.00 | 0.00 | 88 | 1015.0 |
| 20260904165908 | 46 | 111 | 3.0 | 8.0 | 0.00 | 0.00 | 0.00 | 88 | 1016.4 |
| 20260904165506 | 45 | 115 | 3.0 | 8.0 | 0.00 | 0.00 | 0.00 | 87 | 1015.1 |
| 20260904165402 | 45 | 100 | 2.0 | 7.0 | 0.00 | 0.00 | 0.00 | 87 | 1016.3 |
| 20260904165120 | 45 | 111 | 2.0 | 4.0 | 0.00 | 0.00 | 0.00 | 88 | 1016.3 |
| 20260904165008 | 45 | 108 | 3.0 | 7.0 | 0.00 | 0.00 | 0.00 | 87 | 1015.0 |
| 20260904164523 | 44 | 100 | 0.0 | 4.0 | 0.00 | 0.00 | 0.00 | 87 | 1014.9 |
| 20260904164350 | 45 | 100 | 2.0 | 4.0 | 0.00 | 0.00 | 0.00 | 88 | 1016.1 |
| 20260904164003 | 44 | 101 | 2.0 | 4.0 | 0.00 | 0.00 | 0.00 | 87 | 1014.9 |
| 20260904163845 | 44 | 101 | 1.0 | 4.0 | 0.00 | 0.00 | 0.00 | 88 | 1016.0 |
| 20260904163510 | 44 | 130 | 0.0 | 3.0 | 0.00 | 0.00 | 0.00 | 87 | 1014.9 |
| 20260904163337 | 44 | 130 | 1.0 | 3.0 | 0.00 | 0.00 | 0.00 | 87 | 1016.1 |
| 20260904163054 | 44 | 121 | 1.0 | 3.0 | 0.00 | 0.00 | 0.00 | 87 | 1016.0 |
| 20260904163027 | 44 | 130 | 0.0 | 3.0 | 0.00 | 0.00 | 0.00 | 87 | 1014.8 |
| 20260904162504 | 44 | 121 | 0.0 | 7.0 | 0.00 | 0.00 | 0.00 | 87 | 1014.7 |
| 20260904162326 | 44 | 116 | 2.0 | 7.0 | 0.00 | 0.00 | 0.00 | 87 | 1016.0 |
| 20260904162007 | 44 | 124 | 2.0 | 9.0 | 0.00 | 0.00 | 0.00 | 87 | 1014.7 |
| 20260904161821 | 44 | 97 | 3.0 | 9.0 | 0.00 | 0.00 | 0.00 | 88 | 1015.9 |
| 20260904161511 | 44 | 128 | 2.0 | 9.0 | 0.00 | 0.00 | 0.00 | 87 | 1014.7 |
| 20260904161314 | 44 | 105 | 2.0 | 9.0 | 0.00 | 0.00 | 0.00 | 87 | 1015.9 |
| 20260904161029 | 44 | 107 | 1.0 | 7.0 | 0.00 | 0.00 | 0.00 | 88 | 1015.9 |
| 20260904161003 | 44 | 106 | 2.0 | 7.0 | 0.00 | 0.00 | 0.00 | 88 | 1014.7 |
| 20260904160503 | 43 | 86 | 1.0 | 7.0 | 0.00 | 0.00 | 0.00 | 87 | 1014.6 |
| 20260904160302 | 44 | 110 | 1.0 | 7.0 | 0.00 | 0.00 | 0.00 | 88 | 1015.9 |
| 20260904160016 | 43 | 82 | 0.0 | 7.0 | 0.00 | 0.00 | 0.00 | 88 | 1014.6 |
| 20260904155756 | 44 | 113 | 1.0 | 4.0 | 0.00 | 0.00 | 0.00 | 88 | 1016.0 |
| 20260904155509 | 44 | 115 | 2.0 | 7.0 | 0.00 | 0.00 | 0.00 | 89 | 1015.9 |
| 20260904155507 | 43 | 115 | 0.0 | 7.0 | 0.00 | 0.00 | 0.00 | 88 | 1014.6 |
| 20260904155005 | 43 | 103 | 1.0 | 7.0 | 0.00 | 0.00 | 0.00 | 89 | 1014.5 |
| 20260904154744 | 43 | 111 | 2.0 | 7.0 | 0.00 | 0.00 | 0.00 | 90 | 1015.8 |
| 20260904154533 | 43 | 100 | 2.0 | 6.0 | 0.00 | 0.00 | 0.00 | 90 | 1014.5 |
| 20260904154238 | 43 | 99 | 2.0 | 6.0 | 0.00 | 0.00 | 0.00 | 90 | 1015.9 |
| 20260904154012 | 42 | 99 | 1.0 | 6.0 | 0.00 | 0.00 | 0.00 | 90 | 1014.5 |
| 20260904153732 | 43 | 98 | 1.0 | 6.0 | 0.00 | 0.00 | 0.00 | 91 | 1015.8 |
| 20260904153510 | 42 | 112 | 2.0 | 3.0 | 0.00 | 0.00 | 0.00 | 91 | 1014.4 |
| 20260904153226 | 42 | 109 | 1.0 | 3.0 | 0.00 | 0.00 | 0.00 | 91 | 1015.7 |
| 20260904153010 | 42 | 109 | 0.0 | 4.0 | 0.00 | 0.00 | 0.00 | 91 | 1014.3 |
| 20260904152720 | 42 | 109 | 1.0 | 4.0 | 0.00 | 0.00 | 0.00 | 91 | 1015.6 |
| 20260904152509 | 42 | 109 | 1.0 | 4.0 | 0.00 | 0.00 | 0.00 | 91 | 1014.3 |
| 20260904152214 | 42 | 109 | 0.0 | 4.0 | 0.00 | 0.00 | 0.00 | 91 | 1015.6 |
| 20260904152011 | 41 | 128 | 0.0 | 1.0 | 0.00 | 0.00 | 0.00 | 91 | 1014.2 |
| 20260904151708 | 42 | 128 | 0.0 | 3.0 | 0.00 | 0.00 | 0.00 | 91 | 1015.5 |
| 20260904151533 | 41 | 128 | 0.0 | 4.0 | 0.00 | 0.00 | 0.00 | 91 | 1014.2 |
| 20260904151427 | 42 | 126 | 1.0 | 4.0 | 0.00 | 0.00 | 0.00 | 92 | 1015.5 |
| 20260904151006 | 41 | 126 | 0.0 | 4.0 | 0.00 | 0.00 | 0.00 | 92 | 1014.3 |
| 20260904150656 | 41 | 139 | 0.0 | 4.0 | 0.00 | 0.00 | 0.00 | 92 | 1015.6 |
| 20260904150510 | 41 | 131 | 0.0 | 2.0 | 0.00 | 0.00 | 0.00 | 92 | 1014.2 |
| 20260904150150 | 41 | 131 | 0.0 | 4.0 | 0.00 | 0.00 | 0.00 | 93 | 1015.5 |
| 20260904150031 | 40 | 131 | 0.0 | 4.0 | 0.00 | 0.00 | 0.00 | 92 | 1014.2 |
| 20260904145644 | 41 | 127 | 1.0 | 6.0 | 0.00 | 0.00 | 0.00 | 93 | 1015.5 |
| 20260904145507 | 40 | 127 | 1.0 | 6.0 | 0.00 | 0.00 | 0.00 | 93 | 1014.1 |
| 20260904145138 | 40 | 198 | 1.0 | 6.0 | 0.00 | 0.00 | 0.00 | 93 | 1015.3 |
| 20260904145009 | 40 | 198 | 0.0 | 6.0 | 0.00 | 0.00 | 0.00 | 93 | 1014.1 |
| 20260904144519 | 40 | 171 | 0.0 | 0.0 | 0.00 | 0.00 | 0.00 | 93 | 1013.9 |
| 20260904144126 | 40 | 171 | 0.0 | 0.0 | 0.00 | 0.00 | 0.00 | 93 | 1015.1 |
| 20260904144005 | 40 | 171 | 0.0 | 0.0 | 0.00 | 0.00 | 0.00 | 93 | 1013.9 |
| 20260904143620 | 40 | 171 | 0.0 | 0.0 | 0.00 | 0.00 | 0.00 | 93 | 1015.1 |
| 20260904143506 | 40 | 171 | 0.0 | 0.0 | 0.00 | 0.00 | 0.00 | 93 | 1013.8 |
| 20260904143114 | 40 | 171 | 0.0 | 0.0 | 0.00 | 0.00 | 0.00 | 93 | 1015.0 |
| 20260904143026 | 39 | 171 | 0.0 | 0.0 | 0.00 | 0.00 | 0.00 | 93 | 1013.7 |
| 20260904142608 | 40 | 171 | 0.0 | 0.0 | 0.00 | 0.00 | 0.00 | 93 | 1014.9 |
| 20260904142512 | 39 | 171 | 0.0 | 0.0 | 0.00 | 0.00 | 0.00 | 92 | 1013.6 |
| 20260904142102 | 40 | 171 | 0.0 | 0.0 | 0.00 | 0.00 | 0.00 | 93 | 1014.9 |
| 20260904142007 | 39 | 171 | 0.0 | 0.0 | 0.00 | 0.00 | 0.00 | 92 | 1013.6 |
| 20260904141556 | 40 | 171 | 0.0 | 0.0 | 0.00 | 0.00 | 0.00 | 92 | 1014.7 |
| 20260904141523 | 39 | 171 | 0.0 | 0.0 | 0.00 | 0.00 | 0.00 | 92 | 1013.5 |
| 20260904141050 | 39 | 171 | 0.0 | 0.0 | 0.00 | 0.00 | 0.00 | 92 | 1014.7 |
| 20260904141015 | 39 | 171 | 0.0 | 0.0 | 0.00 | 0.00 | 0.00 | 92 | 1013.4 |
| 20260904140544 | 39 | 171 | 0.0 | 0.0 | 0.00 | 0.00 | 0.00 | 92 | 1014.5 |
| 20260904140513 | 39 | 171 | 0.0 | 0.0 | 0.00 | 0.00 | 0.00 | 92 | 1013.4 |
| 20260904140038 | 39 | 171 | 0.0 | 0.0 | 0.00 | 0.00 | 0.00 | 92 | 1014.5 |
| 20260904140017 | 39 | 171 | 0.0 | 0.0 | 0.00 | 0.00 | 0.00 | 91 | 1013.4 |
| 20260904135532 | 39 | 171 | 0.0 | 0.0 | 0.00 | 0.00 | 0.00 | 92 | 1014.5 |
| 20260904135503 | 39 | 171 | 0.0 | 0.0 | 0.00 | 0.00 | 0.00 | 91 | 1013.3 |
| 20260904135026 | 39 | 171 | 0.0 | 0.0 | 0.00 | 0.00 | 0.00 | 91 | 1014.4 |
| 20260904135002 | 39 | 171 | 0.0 | 0.0 | 0.00 | 0.00 | 0.00 | 91 | 1013.1 |
| 20260904134743 | 39 | 171 | 0.0 | 0.0 | 0.00 | 0.00 | 0.00 | 91 | 1014.3 |
| 20260904134514 | 39 | 171 | 0.0 | 0.0 | 0.00 | 0.00 | 0.00 | 91 | 1013.0 |
| 20260904134235 | 40 | 171 | 0.0 | 0.0 | 0.00 | 0.00 | 0.00 | 91 | 1014.2 |
| 20260904134006 | 39 | 171 | 0.0 | 0.0 | 0.00 | 0.00 | 0.00 | 91 | 1013.0 |
| 20260904133508 | 40 | 171 | 0.0 | 0.0 | 0.00 | 0.00 | 0.00 | 91 | 1014.1 |
| 20260904133502 | 39 | 171 | 0.0 | 0.0 | 0.00 | 0.00 | 0.00 | 91 | 1012.8 |
| 20260904133011 | 39 | 171 | 0.0 | 0.0 | 0.00 | 0.00 | 0.00 | 91 | 1012.7 |
| 20260904133008 | 40 | 171 | 0.0 | 0.0 | 0.00 | 0.00 | 0.00 | 91 | 1014.0 |
| 20260904132509 | 39 | 171 | 0.0 | 0.0 | 0.00 | 0.00 | 0.00 | 90 | 1012.7 |
| 20260904132006 | 40 | 171 | 0.0 | 0.0 | 0.00 | 0.00 | 0.00 | 91 | 1014.1 |
| 20260904132004 | 40 | 171 | 0.0 | 0.0 | 0.00 | 0.00 | 0.00 | 90 | 1012.8 |
| 20260904131502 | 40 | 171 | 0.0 | 0.0 | 0.00 | 0.00 | 0.00 | 90 | 1012.8 |
| 20260904131005 | 40 | 171 | 0.0 | 0.0 | 0.00 | 0.00 | 0.00 | 90 | 1014.1 |
| 20260904131003 | 40 | 171 | 0.0 | 0.0 | 0.00 | 0.00 | 0.00 | 90 | 1012.8 |
| 20260904130506 | 40 | 171 | 0.0 | 0.0 | 0.00 | 0.00 | 0.00 | 91 | 1014.0 |
| 20260904130503 | 40 | 171 | 0.0 | 0.0 | 0.00 | 0.00 | 0.00 | 90 | 1012.7 |
| 20260904130006 | 40 | 171 | 0.0 | 0.0 | 0.00 | 0.00 | 0.00 | 91 | 1013.9 |
| 20260904130003 | 40 | 171 | 0.0 | 0.0 | 0.00 | 0.00 | 0.00 | 90 | 1012.5 |
| 20260904125730 | 41 | 171 | 0.0 | 0.0 | 0.00 | 0.00 | 0.00 | 91 | 1013.7 |
| 20260904125503 | 40 | 171 | 0.0 | 0.0 | 0.00 | 0.00 | 0.00 | 90 | 1012.4 |
| 20260904125006 | 41 | 171 | 0.0 | 0.0 | 0.00 | 0.00 | 0.00 | 91 | 1013.5 |
| 20260904125003 | 40 | 171 | 0.0 | 0.0 | 0.00 | 0.00 | 0.00 | 90 | 1012.3 |
| 20260904124504 | 40 | 124 | 0.0 | 0.0 | 0.00 | 0.00 | 0.00 | 90 | 1012.2 |
| 20260904124004 | 41 | 124 | 0.0 | 0.0 | 0.00 | 0.00 | 0.00 | 91 | 1013.6 |
| 20260904123506 | 41 | 124 | 0.0 | 0.0 | 0.00 | 0.00 | 0.00 | 90 | 1012.2 |
| 20260904123503 | 41 | 124 | 0.0 | 0.0 | 0.00 | 0.00 | 0.00 | 91 | 1013.6 |
| 20260904123013 | 41 | 124 | 0.0 | 0.0 | 0.00 | 0.00 | 0.00 | 90 | 1012.2 |
| 20260904123004 | 41 | 124 | 0.0 | 0.0 | 0.00 | 0.00 | 0.00 | 91 | 1013.6 |
| 20260904122503 | 41 | 124 | 0.0 | 0.0 | 0.00 | 0.00 | 0.00 | 90 | 1012.2 |
| 20260904122007 | 41 | 124 | 0.0 | 0.0 | 0.00 | 0.00 | 0.00 | 89 | 1012.2 |
| 20260904122002 | 41 | 124 | 0.0 | 0.0 | 0.00 | 0.00 | 0.00 | 90 | 1013.5 |
| 20260904121516 | 41 | 124 | 0.0 | 0.0 | 0.00 | 0.00 | 0.00 | 89 | 1012.1 |
| 20260904121457 | 41 | 124 | 0.0 | 0.0 | 0.00 | 0.00 | 0.00 | 90 | 1013.4 |
| 20260904121012 | 41 | 124 | 0.0 | 0.0 | 0.00 | 0.00 | 0.00 | 89 | 1012.0 |
| 20260904120958 | 41 | 124 | 0.0 | 0.0 | 0.00 | 0.00 | 0.00 | 89 | 1013.3 |
| 20260904120503 | 41 | 124 | 0.0 | 0.0 | 0.00 | 0.00 | 0.00 | 89 | 1012.0 |
| 20260904120457 | 42 | 124 | 0.0 | 0.0 | 0.00 | 0.00 | 0.00 | 89 | 1013.4 |
| 20260904120018 | 41 | 124 | 0.0 | 0.0 | 0.00 | 0.00 | 0.00 | 88 | 1011.9 |
| 20260904115957 | 42 | 124 | 0.0 | 0.0 | 0.00 | 0.00 | 0.00 | 89 | 1013.3 |
| 20260904115503 | 41 | 124 | 0.0 | 0.0 | 0.00 | 0.00 | 0.00 | 88 | 1011.9 |
| 20260904115458 | 42 | 124 | 0.0 | 0.0 | 0.00 | 0.00 | 0.00 | 89 | 1013.3 |
| 20260904115003 | 42 | 124 | 0.0 | 0.0 | 0.00 | 0.00 | 0.00 | 88 | 1011.9 |
| 20260904114958 | 42 | 124 | 0.0 | 0.0 | 0.00 | 0.00 | 0.00 | 89 | 1013.3 |
| 20260904114718 | 42 | 124 | 0.0 | 0.0 | 0.00 | 0.00 | 0.00 | 88 | 1013.3 |
| 20260904114504 | 42 | 124 | 0.0 | 0.0 | 0.00 | 0.00 | 0.00 | 87 | 1012.0 |
| 20260904114006 | 42 | 124 | 0.0 | 0.0 | 0.00 | 0.00 | 0.00 | 87 | 1012.0 |
| 20260904113957 | 42 | 124 | 0.0 | 0.0 | 0.00 | 0.00 | 0.00 | 88 | 1013.3 |
| 20260904113505 | 42 | 124 | 0.0 | 0.0 | 0.00 | 0.00 | 0.00 | 87 | 1011.9 |
| 20260904113458 | 43 | 124 | 0.0 | 0.0 | 0.00 | 0.00 | 0.00 | 88 | 1013.3 |
| 20260904113009 | 43 | 120 | 0.0 | 0.0 | 0.00 | 0.00 | 0.00 | 87 | 1011.9 |
| 20260904112958 | 43 | 120 | 0.0 | 0.0 | 0.00 | 0.00 | 0.00 | 88 | 1013.2 |
| 20260904112721 | 43 | 120 | 0.0 | 0.0 | 0.00 | 0.00 | 0.00 | 88 | 1013.2 |
| 20260904112503 | 43 | 120 | 0.0 | 0.0 | 0.00 | 0.00 | 0.00 | 87 | 1011.9 |
| 20260904112225 | 43 | 120 | 0.0 | 0.0 | 0.00 | 0.00 | 0.00 | 88 | 1013.2 |
| 20260904112005 | 43 | 120 | 0.0 | 0.0 | 0.00 | 0.00 | 0.00 | 87 | 1011.9 |
| 20260904111519 | 43 | 120 | 0.0 | 0.0 | 0.00 | 0.00 | 0.00 | 87 | 1011.8 |
| 20260904111458 | 43 | 120 | 0.0 | 0.0 | 0.00 | 0.00 | 0.00 | 88 | 1013.2 |
| 20260904111222 | 43 | 120 | 0.0 | 3.0 | 0.00 | 0.00 | 0.00 | 88 | 1013.2 |
| 20260904111005 | 42 | 120 | 0.0 | 3.0 | 0.00 | 0.00 | 0.00 | 87 | 1011.8 |
| 20260904110507 | 42 | 107 | 0.0 | 4.0 | 0.00 | 0.00 | 0.00 | 87 | 1011.7 |
| 20260904110457 | 43 | 107 | 1.0 | 4.0 | 0.00 | 0.00 | 0.00 | 88 | 1013.1 |
| 20260904110026 | 42 | 107 | 1.0 | 4.0 | 0.00 | 0.00 | 0.00 | 88 | 1011.7 |
| 20260904105958 | 42 | 107 | 2.0 | 4.0 | 0.00 | 0.00 | 0.00 | 88 | 1013.1 |
| 20260904105733 | 42 | 109 | 2.0 | 8.0 | 0.00 | 0.00 | 0.00 | 90 | 1012.9 |
| 20260904105552 | 42 | 109 | 0.0 | 8.0 | 0.00 | 0.00 | 0.00 | 89 | 1011.7 |
| 20260904105004 | 41 | 101 | 3.0 | 8.0 | 0.00 | 0.00 | 0.00 | 90 | 1011.6 |
| 20260904104958 | 42 | 96 | 2.0 | 8.0 | 0.00 | 0.00 | 0.00 | 91 | 1012.8 |
| 20260904104534 | 41 | 111 | 2.0 | 7.0 | 0.00 | 0.00 | 0.00 | 91 | 1011.5 |
| 20260904104458 | 41 | 111 | 1.0 | 7.0 | 0.00 | 0.00 | 0.00 | 92 | 1012.8 |
| 20260904104014 | 41 | 116 | 0.0 | 2.0 | 0.00 | 0.00 | 0.00 | 91 | 1011.5 |
| 20260904103958 | 41 | 116 | 0.0 | 2.0 | 0.00 | 0.00 | 0.00 | 92 | 1012.9 |
| 20260904103505 | 41 | 116 | 0.0 | 0.0 | 0.00 | 0.00 | 0.00 | 91 | 1011.5 |
| 20260904103458 | 41 | 116 | 0.0 | 0.0 | 0.00 | 0.00 | 0.00 | 92 | 1012.8 |
| 20260904103008 | 41 | 116 | 0.0 | 0.0 | 0.00 | 0.01 | 0.00 | 91 | 1011.5 |
| 20260904102955 | 41 | 116 | 0.0 | 0.0 | 0.00 | 0.01 | 0.00 | 91 | 1012.8 |
| 20260904102504 | 41 | 116 | 0.0 | 0.0 | 0.00 | 0.01 | 0.00 | 91 | 1011.4 |
| 20260904102454 | 41 | 116 | 0.0 | 0.0 | 0.00 | 0.01 | 0.00 | 91 | 1012.7 |
| 20260904102004 | 41 | 116 | 0.0 | 0.0 | 0.00 | 0.01 | 0.00 | 91 | 1011.2 |
| 20260904101952 | 41 | 116 | 0.0 | 0.0 | 0.00 | 0.01 | 0.00 | 91 | 1012.6 |
| 20260904101512 | 41 | 116 | 0.0 | 0.0 | 0.00 | 0.01 | 0.00 | 91 | 1011.2 |
| 20260904101449 | 41 | 116 | 0.0 | 0.0 | 0.00 | 0.01 | 0.00 | 91 | 1012.6 |
| 20260904101005 | 41 | 116 | 0.0 | 0.0 | 0.00 | 0.01 | 0.00 | 90 | 1011.2 |
| 20260904100947 | 41 | 116 | 0.0 | 0.0 | 0.00 | 0.01 | 0.00 | 91 | 1012.5 |
| 20260904100708 | 41 | 116 | 0.0 | 0.0 | 0.00 | 0.01 | 0.00 | 91 | 1012.6 |
| 20260904100507 | 41 | 116 | 0.0 | 0.0 | 0.00 | 0.01 | 0.00 | 91 | 1011.2 |
| 20260904100010 | 41 | 116 | 0.0 | 0.0 | 0.00 | 0.01 | 0.00 | 91 | 1011.2 |
| 20260904095946 | 41 | 116 | 0.0 | 0.0 | 0.00 | 0.01 | 0.00 | 91 | 1012.5 |
| 20260904095709 | 41 | 116 | 0.0 | 0.0 | 0.00 | 0.01 | 0.00 | 91 | 1012.6 |
| 20260904095508 | 41 | 116 | 0.0 | 0.0 | 0.00 | 0.01 | 0.00 | 90 | 1011.3 |
| 20260904095007 | 41 | 116 | 0.0 | 0.0 | 0.00 | 0.01 | 0.00 | 90 | 1011.3 |
| 20260904094945 | 41 | 116 | 0.0 | 0.0 | 0.00 | 0.01 | 0.00 | 91 | 1012.6 |
| 20260904094535 | 41 | 116 | 0.0 | 0.0 | 0.00 | 0.01 | 0.00 | 90 | 1011.2 |
| 20260904094446 | 41 | 116 | 0.0 | 0.0 | 0.00 | 0.01 | 0.00 | 91 | 1012.5 |
| 20260904094202 | 41 | 116 | 0.0 | 0.0 | 0.00 | 0.01 | 0.00 | 91 | 1012.4 |
| 20260904094004 | 41 | 116 | 0.0 | 0.0 | 0.00 | 0.01 | 0.00 | 91 | 1011.2 |
| 20260904093512 | 41 | 116 | 0.0 | 0.0 | 0.00 | 0.01 | 0.00 | 91 | 1011.2 |
| 20260904093443 | 41 | 116 | 0.0 | 0.0 | 0.00 | 0.01 | 0.00 | 91 | 1012.5 |
| 20260904093029 | 41 | 116 | 0.0 | 0.0 | 0.00 | 0.01 | 0.00 | 91 | 1011.3 |
| 20260904092937 | 41 | 116 | 0.0 | 0.0 | 0.00 | 0.01 | 0.00 | 91 | 1012.6 |
| 20260904092504 | 41 | 116 | 0.0 | 0.0 | 0.00 | 0.01 | 0.00 | 91 | 1011.2 |
| 20260904092431 | 41 | 116 | 0.0 | 0.0 | 0.00 | 0.01 | 0.00 | 91 | 1012.6 |
| 20260904092149 | 41 | 116 | 0.0 | 0.0 | 0.00 | 0.01 | 0.00 | 91 | 1012.5 |
| 20260904092010 | 41 | 116 | 0.0 | 0.0 | 0.00 | 0.01 | 0.00 | 91 | 1011.2 |
| 20260904091508 | 41 | 116 | 0.0 | 0.0 | 0.00 | 0.01 | 0.00 | 91 | 1011.2 |
| 20260904091419 | 41 | 116 | 0.0 | 0.0 | 0.00 | 0.01 | 0.00 | 91 | 1012.6 |
| 20260904091004 | 41 | 116 | 0.0 | 0.0 | 0.00 | 0.01 | 0.00 | 91 | 1011.2 |
| 20260904090913 | 41 | 116 | 0.0 | 0.0 | 0.00 | 0.01 | 0.00 | 91 | 1012.5 |
| 20260904090632 | 41 | 116 | 0.0 | 0.0 | 0.00 | 0.01 | 0.00 | 92 | 1012.6 |
| 20260904090506 | 41 | 116 | 0.0 | 0.0 | 0.00 | 0.01 | 0.00 | 91 | 1011.3 |
| 20260904090019 | 41 | 116 | 0.0 | 0.0 | 0.00 | 0.01 | 0.00 | 91 | 1011.2 |
| 20260904085901 | 41 | 116 | 0.0 | 0.0 | 0.00 | 0.01 | 0.00 | 91 | 1012.6 |
| 20260904085611 | 41 | 116 | 0.0 | 0.0 | 0.00 | 0.01 | 0.00 | 91 | 1012.6 |
| 20260904085506 | 41 | 116 | 0.0 | 0.0 | 0.00 | 0.01 | 0.00 | 91 | 1011.3 |
| 20260904085004 | 41 | 116 | 0.0 | 0.0 | 0.00 | 0.01 | 0.00 | 91 | 1011.4 |
| 20260904084849 | 41 | 116 | 0.0 | 0.0 | 0.00 | 0.01 | 0.00 | 91 | 1012.6 |
| 20260904084517 | 41 | 116 | 0.0 | 0.0 | 0.00 | 0.01 | 0.00 | 91 | 1011.3 |
| 20260904084342 | 41 | 116 | 0.0 | 0.0 | 0.00 | 0.01 | 0.00 | 91 | 1012.7 |
| 20260904084012 | 41 | 116 | 0.0 | 0.0 | 0.00 | 0.01 | 0.00 | 91 | 1011.4 |
| 20260904083837 | 41 | 116 | 0.0 | 0.0 | 0.00 | 0.01 | 0.00 | 92 | 1012.7 |
| 20260904083552 | 41 | 116 | 0.0 | 0.0 | 0.00 | 0.01 | 0.00 | 91 | 1012.7 |
| 20260904083509 | 40 | 116 | 0.0 | 0.0 | 0.00 | 0.01 | 0.00 | 91 | 1011.4 |
| 20260904083013 | 40 | 116 | 0.0 | 0.0 | 0.00 | 0.01 | 0.00 | 91 | 1011.5 |
| 20260904082825 | 41 | 116 | 0.0 | 0.0 | 0.00 | 0.01 | 0.00 | 92 | 1012.8 |
| 20260904082508 | 40 | 116 | 0.0 | 0.0 | 0.00 | 0.01 | 0.00 | 91 | 1011.5 |
| 20260904082319 | 41 | 116 | 0.0 | 0.0 | 0.00 | 0.01 | 0.00 | 91 | 1012.8 |
| 20260904082014 | 40 | 116 | 0.0 | 0.0 | 0.00 | 0.01 | 0.00 | 91 | 1011.6 |
| 20260904081813 | 41 | 116 | 0.0 | 0.0 | 0.00 | 0.01 | 0.00 | 91 | 1012.9 |
| 20260904081533 | 40 | 116 | 0.0 | 0.0 | 0.00 | 0.01 | 0.00 | 91 | 1011.5 |
| 20260904081306 | 41 | 116 | 0.0 | 0.0 | 0.00 | 0.01 | 0.00 | 91 | 1012.9 |
| 20260904081008 | 40 | 116 | 0.0 | 0.0 | 0.00 | 0.01 | 0.00 | 91 | 1011.5 |
| 20260904080800 | 41 | 116 | 0.0 | 0.0 | 0.00 | 0.01 | 0.00 | 92 | 1012.8 |
| 20260904080512 | 40 | 116 | 0.0 | 0.0 | 0.00 | 0.01 | 0.00 | 91 | 1011.5 |
| 20260904080254 | 40 | 116 | 0.0 | 0.0 | 0.00 | 0.01 | 0.00 | 91 | 1012.8 |
| 20260904080031 | 40 | 116 | 0.0 | 0.0 | 0.00 | 0.01 | 0.00 | 91 | 1011.5 |
| 20260904080015 | 40 | 116 | 0.0 | 0.0 | 0.00 | 0.01 | 0.00 | 91 | 1012.8 |
| 20260904075506 | 40 | 116 | 0.0 | 0.0 | 0.00 | 0.01 | 0.00 | 91 | 1011.4 |
| 20260904075243 | 40 | 116 | 0.0 | 0.0 | 0.00 | 0.01 | 0.00 | 91 | 1012.7 |
| 20260904075007 | 40 | 116 | 0.0 | 0.0 | 0.00 | 0.01 | 0.00 | 91 | 1011.5 |
| 20260904074737 | 40 | 116 | 0.0 | 0.0 | 0.00 | 0.01 | 0.00 | 91 | 1012.7 |
| 20260904074514 | 40 | 116 | 0.0 | 0.0 | 0.00 | 0.01 | 0.00 | 91 | 1011.4 |
| 20260904074458 | 40 | 116 | 0.0 | 0.0 | 0.00 | 0.01 | 0.00 | 91 | 1012.8 |
| 20260904074013 | 39 | 116 | 0.0 | 0.0 | 0.00 | 0.01 | 0.00 | 90 | 1011.5 |
| 20260904073725 | 40 | 116 | 0.0 | 0.0 | 0.00 | 0.01 | 0.00 | 91 | 1012.8 |
| 20260904073512 | 39 | 116 | 0.0 | 0.0 | 0.00 | 0.01 | 0.00 | 90 | 1011.5 |
| 20260904073219 | 40 | 116 | 0.0 | 0.0 | 0.00 | 0.01 | 0.00 | 90 | 1012.8 |
| 20260904073032 | 39 | 116 | 0.0 | 0.0 | 0.00 | 0.01 | 0.00 | 89 | 1011.5 |
| 20260904072713 | 40 | 116 | 0.0 | 0.0 | 0.00 | 0.01 | 0.00 | 90 | 1012.8 |
| 20260904072513 | 39 | 116 | 0.0 | 0.0 | 0.00 | 0.01 | 0.00 | 90 | 1011.4 |
| 20260904072207 | 40 | 116 | 0.0 | 0.0 | 0.00 | 0.01 | 0.00 | 90 | 1012.7 |
| 20260904072011 | 39 | 116 | 0.0 | 0.0 | 0.00 | 0.01 | 0.00 | 89 | 1011.4 |
| 20260904071700 | 40 | 116 | 0.0 | 0.0 | 0.00 | 0.01 | 0.00 | 90 | 1012.7 |
| 20260904071520 | 39 | 116 | 0.0 | 0.0 | 0.00 | 0.01 | 0.00 | 89 | 1011.4 |
| 20260904071427 | 40 | 116 | 0.0 | 1.0 | 0.00 | 0.01 | 0.00 | 90 | 1012.7 |
| 20260904071020 | 39 | 116 | 0.0 | 1.0 | 0.00 | 0.01 | 0.00 | 89 | 1011.4 |
| 20260904070701 | 40 | 116 | 0.0 | 1.0 | 0.00 | 0.01 | 0.00 | 90 | 1012.8 |
| 20260904070516 | 39 | 116 | 0.0 | 1.0 | 0.00 | 0.01 | 0.00 | 89 | 1011.5 |
| 20260904070202 | 40 | 116 | 0.0 | 1.0 | 0.00 | 0.01 | 0.00 | 89 | 1012.8 |
| 20260904070036 | 39 | 116 | 0.0 | 0.0 | 0.00 | 0.01 | 0.00 | 88 | 1011.5 |
| 20260904065700 | 40 | 116 | 0.0 | 0.0 | 0.00 | 0.01 | 0.01 | 89 | 1012.8 |
| 20260904065505 | 39 | 116 | 0.0 | 0.0 | 0.00 | 0.01 | 0.01 | 88 | 1011.5 |
| 20260904065427 | 40 | 116 | 0.0 | 0.0 | 0.00 | 0.01 | 0.01 | 89 | 1012.8 |
| 20260904065003 | 39 | 116 | 0.0 | 0.0 | 0.00 | 0.01 | 0.01 | 88 | 1011.5 |
| 20260904064700 | 40 | 116 | 0.0 | 0.0 | 0.00 | 0.01 | 0.01 | 89 | 1012.8 |
| 20260904064510 | 39 | 116 | 0.0 | 0.0 | 0.00 | 0.01 | 0.01 | 88 | 1011.5 |
| 20260904064159 | 40 | 116 | 0.0 | 0.0 | 0.00 | 0.01 | 0.01 | 89 | 1012.8 |
| 20260904064003 | 39 | 116 | 0.0 | 0.0 | 0.00 | 0.01 | 0.01 | 88 | 1011.5 |
| 20260904063656 | 40 | 116 | 0.0 | 0.0 | 0.00 | 0.01 | 0.01 | 88 | 1012.9 |
| 20260904063503 | 39 | 116 | 0.0 | 0.0 | 0.00 | 0.01 | 0.01 | 88 | 1011.6 |
| 20260904063156 | 40 | 116 | 0.0 | 0.0 | 0.00 | 0.01 | 0.01 | 88 | 1012.8 |
| 20260904063010 | 39 | 116 | 0.0 | 0.0 | 0.00 | 0.01 | 0.01 | 88 | 1011.5 |
| 20260904062917 | 40 | 116 | 0.0 | 0.0 | 0.00 | 0.01 | 0.01 | 89 | 1012.7 |
| 20260904062505 | 39 | 116 | 0.0 | 0.0 | 0.00 | 0.01 | 0.01 | 88 | 1011.4 |
| 20260904062156 | 40 | 116 | 0.0 | 0.0 | 0.00 | 0.01 | 0.01 | 89 | 1012.7 |
| 20260904062002 | 39 | 116 | 0.0 | 0.0 | 0.00 | 0.01 | 0.01 | 88 | 1011.3 |
| 20260904061654 | 40 | 116 | 0.0 | 0.0 | 0.00 | 0.01 | 0.01 | 89 | 1012.8 |
| 20260904061507 | 39 | 116 | 0.0 | 0.0 | 0.00 | 0.01 | 0.01 | 88 | 1011.4 |
| 20260904061154 | 40 | 116 | 0.0 | 0.0 | 0.00 | 0.01 | 0.01 | 89 | 1012.8 |
| 20260904061004 | 40 | 116 | 0.0 | 0.0 | 0.00 | 0.01 | 0.01 | 89 | 1011.5 |
| 20260904060916 | 40 | 116 | 0.0 | 0.0 | 0.00 | 0.01 | 0.01 | 89 | 1012.8 |
| 20260904060505 | 40 | 116 | 0.0 | 0.0 | 0.00 | 0.01 | 0.01 | 88 | 1011.5 |
| 20260904060154 | 40 | 116 | 0.0 | 0.0 | 0.00 | 0.01 | 0.01 | 89 | 1012.8 |
| 20260904060006 | 40 | 116 | 0.0 | 0.0 | 0.00 | 0.01 | 0.01 | 88 | 1011.5 |
| 20260904055917 | 40 | 116 | 0.0 | 0.0 | 0.00 | 0.01 | 0.01 | 88 | 1012.8 |
| 20260904055505 | 40 | 116 | 0.0 | 0.0 | 0.00 | 0.01 | 0.01 | 88 | 1011.5 |
| 20260904055153 | 40 | 116 | 0.0 | 0.0 | 0.00 | 0.01 | 0.01 | 88 | 1012.9 |
| 20260904055006 | 40 | 116 | 0.0 | 0.0 | 0.00 | 0.01 | 0.01 | 88 | 1011.6 |
| 20260904054652 | 40 | 116 | 0.0 | 0.0 | 0.00 | 0.01 | 0.01 | 88 | 1013.1 |
| 20260904054508 | 40 | 116 | 0.0 | 0.0 | 0.00 | 0.01 | 0.01 | 87 | 1011.7 |
| 20260904054146 | 40 | 116 | 0.0 | 0.0 | 0.00 | 0.01 | 0.01 | 87 | 1013.1 |
| 20260904054004 | 40 | 116 | 0.0 | 0.0 | 0.00 | 0.01 | 0.01 | 87 | 1011.6 |
| 20260904053647 | 40 | 116 | 0.0 | 0.0 | 0.00 | 0.01 | 0.01 | 87 | 1013.1 |
| 20260904053507 | 40 | 116 | 0.0 | 0.0 | 0.00 | 0.01 | 0.01 | 86 | 1011.7 |
| 20260904053146 | 40 | 116 | 0.0 | 0.0 | 0.00 | 0.01 | 0.01 | 86 | 1013.1 |
| 20260904053018 | 40 | 116 | 0.0 | 0.0 | 0.00 | 0.01 | 0.01 | 86 | 1011.6 |
| 20260904052647 | 40 | 116 | 0.0 | 0.0 | 0.00 | 0.01 | 0.01 | 86 | 1013.1 |
| 20260904052504 | 40 | 116 | 0.0 | 0.0 | 0.00 | 0.01 | 0.01 | 86 | 1011.6 |
| 20260904052146 | 40 | 116 | 0.0 | 0.0 | 0.00 | 0.01 | 0.01 | 86 | 1012.9 |
| 20260904052003 | 40 | 116 | 0.0 | 0.0 | 0.00 | 0.01 | 0.01 | 85 | 1011.6 |
| 20260904051646 | 41 | 116 | 0.0 | 0.0 | 0.00 | 0.01 | 0.01 | 85 | 1012.9 |
| 20260904051514 | 40 | 116 | 0.0 | 0.0 | 0.00 | 0.01 | 0.01 | 85 | 1011.6 |
| 20260904051406 | 41 | 116 | 0.0 | 0.0 | 0.00 | 0.01 | 0.01 | 85 | 1012.9 |
| 20260904051010 | 40 | 116 | 0.0 | 0.0 | 0.00 | 0.01 | 0.01 | 85 | 1011.7 |
| 20260904050646 | 41 | 116 | 0.0 | 0.0 | 0.00 | 0.01 | 0.01 | 85 | 1012.9 |
| 20260904050504 | 40 | 116 | 0.0 | 0.0 | 0.00 | 0.01 | 0.01 | 85 | 1011.7 |
| 20260904050145 | 41 | 116 | 0.0 | 0.0 | 0.00 | 0.01 | 0.01 | 85 | 1013.1 |
| 20260904050024 | 41 | 116 | 0.0 | 0.0 | 0.00 | 0.01 | 0.01 | 85 | 1011.7 |
| 20260904045646 | 41 | 116 | 0.0 | 0.0 | 0.00 | 0.01 | 0.01 | 85 | 1013.1 |
| 20260904045504 | 41 | 116 | 0.0 | 0.0 | 0.00 | 0.01 | 0.01 | 85 | 1011.8 |
| 20260904045145 | 41 | 116 | 0.0 | 0.0 | 0.00 | 0.01 | 0.01 | 85 | 1013.2 |
| 20260904045004 | 41 | 116 | 0.0 | 0.0 | 0.00 | 0.01 | 0.01 | 84 | 1011.9 |
| 20260904044646 | 41 | 116 | 0.0 | 0.0 | 0.00 | 0.01 | 0.01 | 85 | 1013.3 |
| 20260904044516 | 41 | 116 | 0.0 | 0.0 | 0.00 | 0.01 | 0.01 | 85 | 1011.9 |
| 20260904044146 | 41 | 116 | 0.0 | 0.0 | 0.00 | 0.01 | 0.01 | 85 | 1013.2 |
| 20260904044002 | 41 | 116 | 0.0 | 0.0 | 0.00 | 0.01 | 0.01 | 85 | 1012.0 |
| 20260904043645 | 42 | 116 | 0.0 | 0.0 | 0.00 | 0.01 | 0.01 | 85 | 1013.4 |
| 20260904043502 | 41 | 116 | 0.0 | 0.0 | 0.00 | 0.01 | 0.01 | 85 | 1012.1 |
| 20260904043146 | 42 | 116 | 0.0 | 0.0 | 0.00 | 0.01 | 0.01 | 86 | 1013.4 |
| 20260904043006 | 41 | 116 | 0.0 | 0.0 | 0.00 | 0.01 | 0.01 | 85 | 1012.0 |
| 20260904042645 | 42 | 116 | 0.0 | 0.0 | 0.00 | 0.01 | 0.01 | 86 | 1013.3 |
| 20260904042503 | 41 | 116 | 0.0 | 0.0 | 0.00 | 0.01 | 0.01 | 85 | 1012.0 |
| 20260904042146 | 42 | 116 | 0.0 | 0.0 | 0.00 | 0.01 | 0.01 | 86 | 1013.4 |
| 20260904042007 | 41 | 116 | 0.0 | 0.0 | 0.00 | 0.01 | 0.01 | 85 | 1012.0 |
| 20260904041645 | 42 | 116 | 0.0 | 0.0 | 0.00 | 0.01 | 0.01 | 86 | 1013.3 |
| 20260904041513 | 41 | 116 | 0.0 | 0.0 | 0.00 | 0.01 | 0.01 | 85 | 1011.9 |
| 20260904041146 | 42 | 116 | 0.0 | 0.0 | 0.00 | 0.01 | 0.01 | 86 | 1013.3 |
| 20260904041002 | 41 | 116 | 0.0 | 0.0 | 0.00 | 0.01 | 0.01 | 85 | 1011.9 |
| 20260904040645 | 42 | 116 | 0.0 | 0.0 | 0.00 | 0.01 | 0.01 | 86 | 1013.4 |
| 20260904040507 | 41 | 116 | 0.0 | 0.0 | 0.00 | 0.01 | 0.01 | 86 | 1011.9 |
| 20260904040146 | 42 | 116 | 0.0 | 0.0 | 0.00 | 0.01 | 0.01 | 86 | 1013.4 |
| 20260904040016 | 42 | 116 | 0.0 | 2.0 | 0.00 | 0.01 | 0.01 | 85 | 1011.9 |
| 20260904035646 | 42 | 116 | 0.0 | 2.0 | 0.00 | 0.01 | 0.01 | 86 | 1013.4 |
| 20260904035503 | 42 | 116 | 0.0 | 2.0 | 0.00 | 0.01 | 0.01 | 85 | 1011.9 |
| 20260904035146 | 42 | 116 | 0.0 | 2.0 | 0.00 | 0.01 | 0.01 | 85 | 1013.4 |
| 20260904035006 | 42 | 134 | 0.0 | 1.0 | 0.00 | 0.01 | 0.01 | 85 | 1011.9 |
| 20260904034646 | 42 | 134 | 0.0 | 0.0 | 0.00 | 0.01 | 0.01 | 85 | 1013.3 |
| 20260904034515 | 42 | 134 | 0.0 | 0.0 | 0.00 | 0.01 | 0.01 | 84 | 1011.9 |
| 20260904034145 | 42 | 134 | 0.0 | 0.0 | 0.00 | 0.01 | 0.01 | 85 | 1013.2 |
| 20260904034007 | 42 | 134 | 0.0 | 0.0 | 0.00 | 0.01 | 0.01 | 84 | 1011.9 |
| 20260904033646 | 42 | 134 | 0.0 | 0.0 | 0.00 | 0.01 | 0.01 | 85 | 1013.3 |
| 20260904033504 | 42 | 134 | 0.0 | 0.0 | 0.00 | 0.01 | 0.01 | 84 | 1012.0 |
| 20260904033145 | 42 | 134 | 0.0 | 0.0 | 0.00 | 0.01 | 0.01 | 84 | 1013.3 |
| 20260904033007 | 42 | 134 | 0.0 | 0.0 | 0.00 | 0.01 | 0.01 | 83 | 1012.0 |
| 20260904032644 | 42 | 134 | 0.0 | 0.0 | 0.00 | 0.01 | 0.01 | 83 | 1013.4 |
| 20260904032503 | 42 | 134 | 0.0 | 0.0 | 0.00 | 0.01 | 0.01 | 82 | 1011.9 |
| 20260904032002 | 42 | 134 | 0.0 | 0.0 | 0.00 | 0.01 | 0.01 | 82 | 1011.9 |
| 20260904031631 | 43 | 134 | 0.0 | 0.0 | 0.00 | 0.01 | 0.01 | 82 | 1013.3 |
| 20260904031511 | 42 | 134 | 0.0 | 0.0 | 0.00 | 0.01 | 0.01 | 82 | 1011.8 |
| 20260904031125 | 43 | 134 | 0.0 | 0.0 | 0.00 | 0.02 | 0.01 | 82 | 1013.3 |
| 20260904031006 | 42 | 134 | 0.0 | 0.0 | 0.00 | 0.02 | 0.01 | 82 | 1011.7 |
| 20260904030619 | 43 | 134 | 0.0 | 0.0 | 0.00 | 0.02 | 0.01 | 83 | 1013.3 |
| 20260904030512 | 43 | 134 | 0.0 | 0.0 | 0.00 | 0.02 | 0.01 | 82 | 1011.7 |
| 20260904030113 | 44 | 134 | 0.0 | 0.0 | 0.00 | 0.02 | 0.01 | 81 | 1013.3 |
| 20260904030006 | 43 | 134 | 0.0 | 0.0 | 0.00 | 0.02 | 0.01 | 80 | 1011.7 |
| 20260904025607 | 44 | 134 | 0.0 | 0.0 | 0.00 | 0.02 | 0.01 | 80 | 1013.4 |
| 20260904025507 | 44 | 134 | 0.0 | 0.0 | 0.00 | 0.02 | 0.01 | 79 | 1011.8 |
| 20260904025327 | 44 | 134 | 0.0 | 0.0 | 0.00 | 0.03 | 0.01 | 79 | 1013.3 |
| 20260904025012 | 44 | 134 | 0.0 | 0.0 | 0.00 | 0.03 | 0.01 | 78 | 1011.7 |
| 20260904024555 | 45 | 134 | 0.0 | 0.0 | 0.00 | 0.04 | 0.01 | 79 | 1013.2 |
| 20260904024524 | 44 | 134 | 0.0 | 0.0 | 0.00 | 0.03 | 0.01 | 79 | 1011.7 |
| 20260904024049 | 45 | 134 | 0.0 | 0.0 | 0.00 | 0.04 | 0.01 | 80 | 1012.9 |
| 20260904024006 | 45 | 134 | 0.0 | 0.0 | 0.00 | 0.04 | 0.01 | 79 | 1011.6 |
| 20260904023543 | 46 | 134 | 0.0 | 0.0 | 0.00 | 0.05 | 0.01 | 78 | 1012.8 |
| 20260904023511 | 45 | 134 | 0.0 | 0.0 | 0.00 | 0.05 | 0.01 | 78 | 1011.5 |
| 20260904023037 | 46 | 134 | 0.0 | 0.0 | 0.00 | 0.06 | 0.01 | 78 | 1012.9 |
| 20260904023025 | 46 | 134 | 0.0 | 0.0 | 0.00 | 0.06 | 0.01 | 78 | 1011.5 |
| 20260904022753 | 46 | 134 | 0.0 | 0.0 | 0.00 | 0.06 | 0.01 | 79 | 1012.9 |
| 20260904022504 | 46 | 134 | 0.0 | 0.0 | 0.00 | 0.06 | 0.01 | 78 | 1011.5 |
| 20260904022025 | 47 | 134 | 0.0 | 0.0 | 0.00 | 0.06 | 0.01 | 78 | 1012.8 |
| 20260904022007 | 46 | 134 | 0.0 | 0.0 | 0.00 | 0.06 | 0.01 | 77 | 1011.5 |
| 20260904021519 | 47 | 134 | 0.0 | 0.0 | 0.00 | 0.07 | 0.01 | 77 | 1012.8 |
| 20260904021507 | 46 | 134 | 0.0 | 0.0 | 0.00 | 0.07 | 0.01 | 76 | 1011.5 |
| 20260904021013 | 47 | 134 | 0.0 | 0.0 | 0.00 | 0.07 | 0.01 | 77 | 1012.8 |
| 20260904021004 | 47 | 134 | 0.0 | 0.0 | 0.00 | 0.07 | 0.01 | 77 | 1011.5 |
| 20260904020727 | 47 | 134 | 0.0 | 0.0 | 0.00 | 0.08 | 0.01 | 76 | 1012.8 |
| 20260904020503 | 47 | 134 | 0.0 | 0.0 | 0.00 | 0.08 | 0.01 | 76 | 1011.5 |
| 20260904020014 | 47 | 134 | 0.0 | 0.0 | 0.00 | 0.08 | 0.01 | 76 | 1011.5 |
| 20260904020001 | 48 | 134 | 0.0 | 0.0 | 0.00 | 0.08 | 0.01 | 76 | 1012.7 |
| 20260904015508 | 48 | 134 | 0.0 | 0.0 | 0.00 | 0.09 | 0.01 | 75 | 1011.6 |
| 20260904015455 | 48 | 134 | 0.0 | 0.0 | 0.00 | 0.09 | 0.01 | 76 | 1012.8 |
| 20260904015008 | 48 | 134 | 0.0 | 0.0 | 0.00 | 0.09 | 0.01 | 74 | 1011.5 |
| 20260904014949 | 49 | 134 | 0.0 | 0.0 | 0.00 | 0.09 | 0.01 | 74 | 1012.8 |
| 20260904014515 | 49 | 134 | 0.0 | 0.0 | 0.00 | 0.09 | 0.01 | 73 | 1011.5 |
| 20260904014443 | 49 | 134 | 0.0 | 0.0 | 0.00 | 0.09 | 0.01 | 74 | 1012.7 |
| 20260904014011 | 49 | 134 | 0.0 | 1.0 | 0.00 | 0.09 | 0.01 | 71 | 1011.4 |
| 20260904013937 | 50 | 134 | 0.0 | 1.0 | 0.00 | 0.09 | 0.01 | 71 | 1012.8 |
| 20260904013510 | 50 | 134 | 0.0 | 1.0 | 0.00 | 0.09 | 0.01 | 71 | 1011.4 |
| 20260904013431 | 50 | 134 | 0.0 | 1.0 | 0.00 | 0.09 | 0.01 | 71 | 1012.7 |
| 20260904013010 | 50 | 134 | 0.0 | 0.0 | 0.00 | 0.09 | 0.01 | 71 | 1011.4 |
| 20260904012925 | 51 | 134 | 0.0 | 0.0 | 0.00 | 0.09 | 0.01 | 72 | 1012.7 |
| 20260904012641 | 51 | 134 | 0.0 | 2.0 | 0.00 | 0.09 | 0.01 | 70 | 1012.8 |
| 20260904012511 | 51 | 134 | 0.0 | 2.0 | 0.00 | 0.09 | 0.01 | 69 | 1011.4 |
| 20260904012014 | 51 | 134 | 0.0 | 2.0 | 0.00 | 0.09 | 0.01 | 66 | 1011.4 |
| 20260904011912 | 51 | 134 | 0.0 | 2.0 | 0.00 | 0.09 | 0.01 | 67 | 1012.8 |
| 20260904011627 | 52 | 134 | 0.0 | 1.0 | 0.00 | 0.09 | 0.01 | 66 | 1012.8 |
| 20260904011533 | 51 | 134 | 0.0 | 1.0 | 0.00 | 0.09 | 0.01 | 68 | 1011.4 |
| 20260904011008 | 51 | 134 | 0.0 | 3.0 | 0.00 | 0.09 | 0.01 | 66 | 1011.4 |
| 20260904010901 | 52 | 134 | 1.0 | 3.0 | 0.00 | 0.09 | 0.01 | 65 | 1012.8 |
| 20260904010514 | 52 | 134 | 0.0 | 3.0 | 0.00 | 0.09 | 0.01 | 64 | 1011.5 |
| 20260904010355 | 52 | 134 | 2.0 | 4.0 | 0.00 | 0.09 | 0.01 | 65 | 1012.7 |
| 20260904010025 | 52 | 136 | 1.0 | 4.0 | 0.00 | 0.09 | 0.01 | 62 | 1011.5 |
| 20260904005849 | 52 | 136 | 1.0 | 4.0 | 0.00 | 0.09 | 0.01 | 63 | 1012.9 |
| 20260904005503 | 52 | 136 | 0.0 | 4.0 | 0.00 | 0.09 | 0.01 | 62 | 1011.6 |
| 20260904005344 | 52 | 150 | 0.0 | 3.0 | 0.00 | 0.09 | 0.01 | 65 | 1012.8 |
| 20260904005002 | 52 | 150 | 0.0 | 3.0 | 0.00 | 0.09 | 0.01 | 65 | 1011.6 |
| 20260904004837 | 52 | 244 | 0.0 | 3.0 | 0.00 | 0.09 | 0.01 | 65 | 1012.8 |
| 20260904004506 | 52 | 244 | 0.0 | 4.0 | 0.00 | 0.09 | 0.01 | 63 | 1011.6 |
| 20260904004331 | 52 | 244 | 1.0 | 4.0 | 0.00 | 0.09 | 0.01 | 63 | 1012.7 |
| 20260904004003 | 52 | 244 | 1.0 | 4.0 | 0.00 | 0.09 | 0.01 | 61 | 1011.5 |
| 20260904003825 | 52 | 251 | 0.0 | 4.0 | 0.00 | 0.09 | 0.01 | 63 | 1012.7 |
| 20260904003501 | 52 | 142 | 0.0 | 3.0 | 0.00 | 0.09 | 0.01 | 61 | 1011.5 |
| 20260904003319 | 53 | 142 | 1.0 | 3.0 | 0.00 | 0.09 | 0.01 | 61 | 1012.8 |
| 20260904003004 | 52 | 140 | 0.0 | 4.0 | 0.00 | 0.09 | 0.01 | 62 | 1011.5 |
| 20260904002813 | 53 | 257 | 1.0 | 4.0 | 0.00 | 0.09 | 0.01 | 61 | 1012.8 |
| 20260904002505 | 52 | 265 | 1.0 | 6.0 | 0.00 | 0.09 | 0.01 | 60 | 1011.4 |
| 20260904002307 | 53 | 134 | 2.0 | 7.0 | 0.00 | 0.09 | 0.01 | 64 | 1012.7 |
| 20260904002003 | 52 | 119 | 0.0 | 7.0 | 0.00 | 0.09 | 0.01 | 67 | 1011.5 |
| 20260904001801 | 53 | 105 | 2.0 | 7.0 | 0.00 | 0.09 | 0.01 | 66 | 1012.7 |
| 20260904001502 | 52 | 105 | 2.0 | 7.0 | 0.00 | 0.09 | 0.01 | 65 | 1011.4 |
| 20260904001255 | 52 | 109 | 2.0 | 6.0 | 0.00 | 0.09 | 0.01 | 66 | 1012.7 |
| 20260904001004 | 52 | 107 | 2.0 | 8.0 | 0.00 | 0.09 | 0.01 | 64 | 1011.5 |
| 20260904000749 | 52 | 93 | 3.0 | 8.0 | 0.00 | 0.09 | 0.01 | 66 | 1012.7 |
| 20260904000507 | 52 | 108 | 1.0 | 8.0 | 0.00 | 0.09 | 0.01 | 65 | 1011.4 |
| 20260904000243 | 52 | 115 | 2.0 | 8.0 | 0.00 | 0.09 | 0.01 | 66 | 1012.7 |
| 20260904000007 | 52 | 119 | 3.0 | 8.0 | 0.00 | 0.09 | 0.01 | 67 | 1011.5 |
| 20260903235737 | 52 | 104 | 1.0 | 6.0 | 0.00 | 0.09 | 0.01 | 67 | 1012.7 |
| 20260903235502 | 52 | 115 | 1.0 | 6.0 | 0.00 | 0.09 | 0.01 | 68 | 1011.4 |
| 20260903235231 | 52 | 109 | 1.0 | 6.0 | 0.00 | 0.09 | 0.01 | 69 | 1012.7 |
| 20260903235003 | 52 | 119 | 2.0 | 6.0 | 0.00 | 0.09 | 0.01 | 67 | 1011.5 |
| 20260903234951 | 52 | 123 | 1.0 | 6.0 | 0.00 | 0.09 | 0.01 | 68 | 1012.8 |
| 20260903234511 | 52 | 130 | 0.0 | 6.0 | 0.00 | 0.09 | 0.01 | 67 | 1011.5 |
| 20260903234219 | 52 | 126 | 2.0 | 6.0 | 0.00 | 0.09 | 0.01 | 68 | 1012.8 |
| 20260903234008 | 52 | 104 | 1.0 | 6.0 | 0.00 | 0.09 | 0.01 | 68 | 1011.6 |
| 20260903233713 | 52 | 110 | 3.0 | 6.0 | 0.00 | 0.09 | 0.01 | 70 | 1012.9 |
| 20260903233503 | 52 | 115 | 2.0 | 6.0 | 0.00 | 0.09 | 0.01 | 68 | 1011.6 |
| 20260903233207 | 52 | 114 | 3.0 | 6.0 | 0.00 | 0.09 | 0.01 | 68 | 1013.1 |
| 20260903233006 | 52 | 106 | 3.0 | 6.0 | 0.00 | 0.09 | 0.01 | 69 | 1011.7 |
| 20260903232701 | 52 | 118 | 3.0 | 4.0 | 0.00 | 0.09 | 0.01 | 67 | 1013.1 |
| 20260903232506 | 52 | 119 | 2.0 | 6.0 | 0.00 | 0.09 | 0.01 | 68 | 1011.7 |
| 20260903232156 | 53 | 118 | 3.0 | 6.0 | 0.00 | 0.09 | 0.01 | 66 | 1013.1 |
| 20260903232003 | 52 | 108 | 2.0 | 7.0 | 0.00 | 0.09 | 0.01 | 65 | 1011.7 |
| 20260903231649 | 53 | 116 | 4.0 | 10.0 | 0.00 | 0.09 | 0.01 | 64 | 1013.1 |
| 20260903231503 | 52 | 116 | 2.0 | 10.0 | 0.00 | 0.09 | 0.01 | 64 | 1011.8 |
| 20260903231143 | 53 | 107 | 3.0 | 10.0 | 0.00 | 0.09 | 0.01 | 64 | 1012.9 |
| 20260903231002 | 53 | 109 | 5.0 | 10.0 | 0.00 | 0.09 | 0.01 | 64 | 1011.7 |
| 20260903230637 | 53 | 123 | 2.0 | 7.0 | 0.00 | 0.09 | 0.01 | 65 | 1012.9 |
| 20260903230505 | 53 | 173 | 1.0 | 8.0 | 0.00 | 0.09 | 0.01 | 63 | 1011.8 |
| 20260903230131 | 54 | 114 | 2.0 | 8.0 | 0.00 | 0.09 | 0.01 | 65 | 1012.9 |
| 20260903230009 | 53 | 132 | 1.0 | 8.0 | 0.00 | 0.09 | 0.01 | 62 | 1011.8 |
| 20260903225625 | 54 | 246 | 2.0 | 8.0 | 0.00 | 0.09 | 0.01 | 62 | 1013.1 |
| 20260903225504 | 53 | 240 | 2.0 | 8.0 | 0.00 | 0.09 | 0.01 | 62 | 1011.8 |
| 20260903225119 | 54 | 112 | 4.0 | 12.0 | 0.00 | 0.09 | 0.01 | 62 | 1013.1 |
| 20260903225004 | 53 | 153 | 1.0 | 12.0 | 0.00 | 0.09 | 0.01 | 61 | 1011.7 |
| 20260903224613 | 53 | 107 | 5.0 | 12.0 | 0.00 | 0.09 | 0.01 | 62 | 1013.2 |
| 20260903224509 | 53 | 112 | 6.0 | 12.0 | 0.00 | 0.09 | 0.01 | 61 | 1011.9 |
| 20260903224107 | 53 | 188 | 3.0 | 11.0 | 0.00 | 0.09 | 0.01 | 61 | 1013.4 |
| 20260903224005 | 53 | 169 | 1.0 | 11.0 | 0.00 | 0.09 | 0.01 | 61 | 1011.9 |
| 20260903223601 | 53 | 108 | 3.0 | 11.0 | 0.00 | 0.09 | 0.01 | 61 | 1013.2 |
| 20260903223504 | 53 | 106 | 2.0 | 10.0 | 0.00 | 0.09 | 0.01 | 60 | 1011.9 |
| 20260903223023 | 53 | 126 | 3.0 | 10.0 | 0.00 | 0.09 | 0.01 | 60 | 1011.8 |
| 20260903222810 | 53 | 111 | 3.0 | 9.0 | 0.00 | 0.09 | 0.01 | 65 | 1013.3 |
| 20260903222505 | 53 | 107 | 2.0 | 9.0 | 0.00 | 0.09 | 0.01 | 64 | 1011.7 |
| 20260903222043 | 53 | 144 | 4.0 | 9.0 | 0.00 | 0.09 | 0.01 | 62 | 1013.3 |
| 20260903222004 | 53 | 5 | 3.0 | 9.0 | 0.00 | 0.09 | 0.01 | 62 | 1011.9 |
| 20260903221759 | 53 | 109 | 4.0 | 10.0 | 0.00 | 0.09 | 0.01 | 67 | 1013.3 |
| 20260903221514 | 52 | 90 | 3.0 | 10.0 | 0.00 | 0.09 | 0.01 | 67 | 1011.8 |
| 20260903221031 | 53 | 103 | 4.0 | 10.0 | 0.00 | 0.09 | 0.01 | 69 | 1013.2 |
| 20260903221011 | 52 | 107 | 6.0 | 10.0 | 0.00 | 0.09 | 0.01 | 69 | 1011.8 |
| 20260903220750 | 52 | 109 | 4.0 | 9.0 | 0.00 | 0.09 | 0.01 | 68 | 1013.2 |
| 20260903220503 | 52 | 115 | 3.0 | 9.0 | 0.00 | 0.09 | 0.01 | 68 | 1011.8 |
| 20260903220029 | 52 | 113 | 5.0 | 10.0 | 0.00 | 0.09 | 0.01 | 70 | 1013.1 |
| 20260903220004 | 52 | 107 | 4.0 | 10.0 | 0.00 | 0.09 | 0.01 | 69 | 1011.9 |